Weather History for Salt Lake City, UT

Change the Weather History Date:

Saturday, March 16, 2013

  Actual Average Record
Temperature  
Mean Temperature 52 °F 44 °F  
Max Temperature 60 °F 54 °F 74 °F (1887)
Min Temperature 43 °F 34 °F 10 °F (1963)
Degree Days  
Heating Degree Days 13 21  
Month to date heating degree days 326 372  
Since 1 July heating degree days 4558 4628  
Cooling Degree Days 0 0  
Month to date cooling degree days 0 0  
Year to date cooling degree days 0 0  
Growing Degree Days 2 (Base 50)    
Moisture  
Dew Point 31 °F    
Average Humidity 51    
Maximum Humidity 76    
Minimum Humidity 25    
Precipitation  
Precipitation 0.00 in 0.06 in 0.53 in (1975)
Month to date precipitation 0.36 0.85  
Year to date precipitation 2.56 3.35  
Snow  
Snow 0.00 in 0.20 in 5.60 in (1958)
Month to date snowfall 0.0 3.6  
Since 1 July snowfall 67.1 49.0  
Snow Depth 0.00 in    
Sea Level Pressure  
Sea Level Pressure 29.88 in    
Wind  
Wind Speed 6 mph (NW)    
Max Wind Speed 14 mph    
Max Gust Speed 17 mph    
Visibility 10 miles    
Events      
T = Trace of Precipitation, MM = Missing Value Source: NWS Daily Summary

Daily Weather History Graph

Daily Weather History Graph

Search for Another Location

Airport:

Trip Planner

Search our weather history database for the weather conditions in past years. The results will help you decide how hot, cold, wet, or windy it might be!

Date:

Astronomy

Mar. 16, 2013 Rise Set
Actual Time 7:37 AM MDT 7:36 PM MDT
Civil Twilight 7:10 AM MDT 8:03 PM MDT
Nautical Twilight 6:38 AM MDT 8:35 PM MDT
Astronomical Twilight 6:05 AM MDT 9:07 PM MDT
Moon 10:07 AM MDT (3/16) No Moon Set
Length of Visible Light 12h 53m
Length of Day
11h 58m
Waxing Crescent, 23% of the Moon is Illuminated
Mar 16
Waxing Crescent
Mar 19
First Quarter
Mar 27
Full
Apr 2
Last Quarter
Apr 10
New

Hourly Weather History & Observations

Time (MDT) Temp. Windchill Dew Point Humidity Pressure Visibility Wind Dir Wind Speed Gust Speed Precip Events Conditions
12:53 AM 45.0 °F 43.5 °F 39.9 °F 82% 29.91 in 10.0 mi West 3.5 mph - N/A   Mostly Cloudy
1:53 AM 45.0 °F - 37.9 °F 76% 29.90 in 10.0 mi Calm Calm - N/A   Mostly Cloudy
2:53 AM 44.1 °F 42.5 °F 37.9 °F 79% 29.91 in 10.0 mi WNW 3.5 mph - N/A   Mostly Cloudy
3:53 AM 46.9 °F - 37.0 °F 68% 29.88 in 10.0 mi ENE 3.5 mph - N/A   Mostly Cloudy
4:53 AM 48.0 °F - 34.0 °F 58% 29.89 in 10.0 mi NW 5.8 mph - N/A   Mostly Cloudy
5:53 AM 46.0 °F - 35.1 °F 66% 29.91 in 10.0 mi Calm Calm - N/A   Mostly Cloudy
6:53 AM 46.0 °F 44.8 °F 35.1 °F 66% 29.91 in 10.0 mi WNW 3.5 mph - N/A   Mostly Cloudy
7:53 AM 46.9 °F - 35.1 °F 63% 29.92 in 10.0 mi Calm Calm - N/A   Mostly Cloudy
8:53 AM 48.9 °F - 37.0 °F 64% 29.95 in 10.0 mi North 5.8 mph - N/A   Scattered Clouds
9:53 AM 52.0 °F - 37.9 °F 59% 29.96 in 10.0 mi North 4.6 mph - N/A   Scattered Clouds
10:53 AM 55.0 °F - 33.1 °F 43% 29.96 in 10.0 mi NNW 8.1 mph - N/A   Scattered Clouds
11:53 AM 55.0 °F - 27.0 °F 34% 29.97 in 10.0 mi NNW 6.9 mph - N/A   Scattered Clouds
12:53 PM 57.9 °F - 27.0 °F 31% 29.96 in 10.0 mi WNW 9.2 mph - N/A   Scattered Clouds
1:53 PM 59.0 °F - 30.9 °F 35% 29.95 in 10.0 mi WNW 10.4 mph 17.3 mph N/A   Scattered Clouds
2:53 PM 57.9 °F - 28.0 °F 32% 29.92 in 10.0 mi NNW 6.9 mph - N/A   Partly Cloudy
3:53 PM 57.9 °F - 25.0 °F 28% 29.89 in 10.0 mi WSW 6.9 mph - N/A   Partly Cloudy
4:53 PM 57.9 °F - 26.1 °F 30% 29.87 in 10.0 mi North 9.2 mph - N/A   Scattered Clouds
5:53 PM 55.9 °F - 23.0 °F 28% 29.87 in 10.0 mi NW 3.5 mph - N/A   Mostly Cloudy
6:53 PM 54.0 °F - 26.1 °F 34% 29.86 in 10.0 mi NNE 6.9 mph - N/A   Mostly Cloudy
7:53 PM 53.1 °F - 26.1 °F 35% 29.82 in 10.0 mi Calm Calm - N/A   Mostly Cloudy
8:53 PM 52.0 °F - 24.1 °F 34% 29.79 in 10.0 mi ESE 3.5 mph - N/A   Mostly Cloudy
9:53 PM 50.0 °F - 27.0 °F 41% 29.78 in 10.0 mi South 5.8 mph - N/A   Scattered Clouds
10:53 PM 48.0 °F - 25.0 °F 41% 29.75 in 10.0 mi ESE 8.1 mph - N/A   Scattered Clouds
11:53 PM 48.0 °F - 25.0 °F 41% 29.71 in 10.0 mi SE 8.1 mph - N/A   Mostly Cloudy